• Join FlightAware (Why Join?)
  • Login
  • US Flag 
07:36AM EST


 

Airport Tracker/Info


-or-


 

Live Flight TrackerFlight Track Log ✈ FDX1263 ✈ 13-Jun-2013 ✈ KATL - KMEM

Flight Track Log - Related Links

Times and Time Zones

All times are in EDT time to prevent confusion due to time zone crossing. See the FDX1263 flight status page for this flight to view local times or setup timezone preferences in your user account.

Time Position Orientation Groundspeed Altitude Reporting Facility
EDT Latitude Longitude Course Direction KTS MPH feet Rate Location/Type
11:54PM 33.6540 -84.4170 135° Southeast 15 17  Level FlightAware
11:54PM 33.6540 -84.4160 90° East 13 15 50 Level FlightAware
11:57PM 33.7416 -84.2667 North  Level FlightAware Approximate
11:58PM 33.8000 -84.3100 270° West  Level FlightAware Approximate
11:59PM 33.8001 -84.4235 270° West  Level FlightAware Approximate
12:00AM 33.8000 -84.5371 270° West  Level FlightAware Approximate
12:01AM 33.7911 -84.6489 252° West  Level FlightAware Approximate
12:01AM 33.6510 -84.4140 157° South 28 32  Level FlightAware
12:02AM 33.6510 -84.4120 90° East 16 18 74 Level FlightAware
12:02AM 33.6510 -84.4100 90° East 26 30 77 Level FlightAware
12:04AM 33.6500 -84.4100 180° South 21 24 79 Level FlightAware
12:05AM 33.6490 -84.4100 180° South 15 17 94 Level FlightAware
12:07AM 33.7104 -84.2667 North  Level FlightAware Approximate
12:08AM 33.8000 -84.2724 270° West  Level FlightAware Approximate
12:08AM 33.6480 -84.4060 270° West 21 24  Level FlightAware
12:10AM 33.6966 -84.5817 288° West  Level Estimated
12:11AM 33.7262 -84.6894 288° West  Level Estimated
12:12AM 33.7557 -84.7972 288° West  Level Estimated
12:13AM 33.7852 -84.9050 288° West  Level Estimated
12:14AM 33.8145 -85.0130 288° West  Level Estimated
12:15AM 33.8438 -85.1209 288° West  Level Estimated
12:15AM 33.6470 -84.4070 270° West 31 36  Level FlightAware
12:16AM 33.6470 -84.4080 270° West 35 40 1,737 Level FlightAware
12:16AM 33.6470 -84.4260 270° West 158 182 1,100 1,969 Climbing FlightAware
12:17AM 33.6470 -84.4540 270° West 165 190 2,100 1,500 Climbing FlightAware
12:17AM 33.6500 -84.4820 277° West 201 231 2,600 1,286 Climbing FlightAware
12:18AM 33.6570 -84.5150 284° West 235 270 3,300 2,143 Climbing FlightAware
12:18AM 33.6640 -84.5530 282° West 249 287 4,600 3,000 Climbing FlightAware
12:18AM 33.6670 -84.5690 283° West 247 284 5,300 3,000 Climbing FlightAware
12:19AM 33.6730 -84.6060 281° West 254 292 6,600 2,793 Climbing FlightAware
12:19AM 33.6800 -84.6500 281° West 265 305 8,000 2,690 Climbing FlightAware
12:20AM 33.6870 -84.6900 282° West 273 314 9,200 2,550 Climbing FlightAware
12:20AM 33.6900 -84.7080 281° West 276 318 9,700 1,560 Climbing FlightAware
12:21AM 33.6990 -84.7690 280° West 323 372 10,500 857 Climbing FlightAware
12:21AM 33.6890 -84.8610 263° West 383 441 10,900 1,186 Climbing FlightAware
12:22AM 33.6780 -84.9440 261° West 393 452 12,200 1,953 Climbing FlightAware
12:23AM 33.6670 -85.0470 263° West 400 460 13,700 1,953 Climbing FlightAware
12:23AM 33.6580 -85.1340 263° West 408 470 15,000 1,765 Climbing FlightAware
12:24AM 33.6490 -85.2290 264° West 412 474 16,200 1,744 Climbing FlightAware
12:25AM 33.6500 -85.3320 271° West 416 479 17,500 1,704 Climbing FlightAware
12:25AM 33.6520 -85.4250 272° West 424 488 18,500 1,575 Climbing FlightAware
12:26AM 33.6530 -85.5180 271° West 430 495 19,600 1,714 Climbing FlightAware
12:27AM 33.6550 -85.6250 271° West 435 501 20,900 1,568 Climbing FlightAware
12:28AM 33.6570 -85.7300 271° West 444 511 21,900 1,773 Climbing FlightAware
12:28AM 33.6590 -85.8410 271° West 436 502 23,500 1,571 Climbing FlightAware
12:29AM 33.6600 -85.9360 271° West 450 518 24,100 825 Climbing FlightAware
12:30AM 33.6620 -86.0370 271° West 462 532 24,600 164 Climbing FlightAware
12:33AM 33.6620 -86.0500 270° West 463 533 24,700 965 Climbing FlightAware
12:34AM 33.6680 -86.5500 271° West 483 556 28,300 2,769 Climbing FlightAware
12:34AM 33.6680 -86.7010 270° West 481 554 28,900 468 Climbing FlightAware
12:35AM 33.6680 -86.7820 270° West 481 554 28,900  Level FlightAware
12:36AM 33.6680 -86.8890 270° West 481 554 28,900 4,000 Level FlightAware
12:36AM 33.7120 -86.9860 299° West 433 498 32,900 6,133 Climbing FlightAware
12:36AM 33.7448 -87.0554 300° West 432 497 33,500 871 Climbing FlightAware ADS-B
12:37AM 33.7743 -87.1181 300° West 433 498 33,800 380 Climbing FlightAware ADS-B
12:38AM 33.8230 -87.2184 300° West 434 499 34,000 150 Climbing FlightAware ADS-B
12:38AM 33.8538 -87.2836 300° West 435 501 34,000  Level FlightAware ADS-B
12:39AM 33.8947 -87.3767 300° West 435 501 34,000  Level Memphis Center
12:40AM 33.9628 -87.5122 301° West 435 501 34,000 -610 Level Memphis Center
12:45AM 34.2690 -88.1510 301° West 431 496 30,300 -713 Descending FlightAware
12:46AM 34.3040 -88.2260 299° West 429 494 29,900 -276 Descending FlightAware
12:47AM 34.3430 -88.3070 300° West 429 494 29,900  Level FlightAware
12:47AM 34.3740 -88.3730 300° West 429 494 29,900  Level FlightAware
12:48AM 34.4150 -88.4580 300° West 429 494 29,900  Level FlightAware
12:49AM 34.4650 -88.5640 300° West 429 494 29,900 -5,032 Level FlightAware
12:50AM 34.5394 -88.7031 300° West 389 448 19,500 -6,097 Descending Memphis Center
12:51AM 34.5886 -88.8081 300° West 370 426 17,300 -2,100 Descending Memphis Center
12:52AM 34.6378 -88.9081 301° West 352 405 15,300 -2,050 Descending Memphis Center
12:53AM 34.6619 -89.0189 285° West 346 398 13,200 -2,000 Descending Memphis Center
12:54AM 34.6883 -89.1297 286° West 341 392 11,300 -1,300 Descending Memphis Center
12:55AM 34.7100 -89.2278 285° West 316 364 10,600 -650 Descending Memphis Center
12:56AM 34.7192 -89.3289 276° West 291 335 10,000 -600 Descending Memphis Center
12:57AM 34.7200 -89.4197 271° West 270 311 9,400 -1,000 Descending Memphis Center
12:58AM 34.7206 -89.5056 270° West 265 305 8,000 -1,100 Descending Memphis Center
12:59AM 34.7211 -89.5889 270° West 258 297 7,200 -1,000 Descending Memphis Center
01:00AM 34.7217 -89.6672 271° West 240 276 6,000 -1,150 Descending Memphis Center
01:01AM 34.7219 -89.7481 270° West 240 276 4,900 -900 Descending Memphis Center
01:02AM 34.7328 -89.8139 281° West 232 267 4,200 -950 Descending Memphis Center
01:03AM 34.7728 -89.8767 308° West 227 261 3,000 -650 Descending Memphis Center
01:04AM 34.8083 -89.9372 306° West 227 261 2,900 -450 Descending Memphis Center
01:05AM 34.8650 -89.9750 331° Northwest 211 243 2,100 -536 Descending Memphis Center
01:06AM 34.9000 -89.9667 11° North 161 185 1,900 -161 Descending KMEM
01:07AM 34.9500 -89.9667 360° North 156 180 1,800 -400 Descending KMEM
01:08AM 34.9833 -89.9667 360° North 140 161 1,100 -700 Descending KMEM
01:10AM 35.0333 -89.9667 North  Level FlightAware Approximate
01:17AM 35.0424 -89.9767 North  Level Estimated